{"data":{"norad_id":66141,"epoch":"2026-05-25T00:37:07.646016Z","epoch_age_seconds":70068,"freshness":"FRESH","line1":"1 66141U 25237AD  26145.02578294  .00012292  00000+0  42634-3 0  9999","line2":"2 66141  53.1587  45.3455 0001055  95.4357 264.6764 15.30208080 34299","mean_motion":15.3020808,"eccentricity":0.0001055,"inclination_deg":53.1587,"raan_deg":45.3455,"arg_perigee_deg":95.4357,"mean_anomaly_deg":264.6764,"bstar":0.00042634,"rev_number":3429,"period_min":94.104848799387,"perigee_km":474.46791800381,"apogee_km":475.91397020002,"semimajor_km":6853.3279441019,"source":"CELESTRAK","updated_at":"2026-05-25T13:38:21.068107Z"}}